User: anonymous   Login
Location: Brno
(49.2000°N, 16.6330°E)
Time: 00:54:16
(UTC+02:00)
Language:

BREEZE M DEB (TANK) - Orbit

View from above orbital plane
View from above orbital plane
View from above satellite
View from above satellite

Ground track
Ground track

The orbit data is extracted from the following two-line orbital elements,

1 28359U 04022B   15109.03473581  .00009080  00000-0  92913-3 0  9996
2 28359 049.5323 112.9867 4708517 278.4847 052.1438 06.14571245236459
Epoch (UTC): 19 April 2015 00:50:01
Eccentricity: 0.4708517
inclination: 49.5323°
perigee height: 284 km
apogee height: 12139 km
right ascension of ascending node: 112.9867°
argument of perigee: 278.4847°
revolutions per day: 6.14571245
mean anomaly at epoch: 52.1438°
orbit number at epoch: 23645

The dashed part of the orbit path shows where the satellite is in the earth's shadow,  

DLR